Change the Weather History Date:

Thursday, October 17, 2013

  Actual Average Record
Temperature  
Mean Temperature 38 °F -  
Max Temperature 51 °F 58 °F 84 °F (2003)
Min Temperature 25 °F 29 °F 19 °F (1999)
Degree Days  
Heating Degree Days 27    
Cooling Degree Days 0    
Moisture  
Dew Point 30 °F    
Average Humidity 77    
Maximum Humidity 93    
Minimum Humidity 42    
Precipitation  
Precipitation 0.03 in 0.03 in 0.08 in (2006)
Month to date precipitation 0.16 0.48  
Year to date precipitation 12.95 11.16  
Sea Level Pressure  
Sea Level Pressure 30.16 in    
Wind  
Wind Speed 7 mph (West)    
Max Wind Speed 14 mph    
Max Gust Speed 21 mph    
Visibility 10 miles    
Events Rain    
T = Trace of Precipitation, MM = Missing Value Source: NWS Daily Summary

Daily Weather History Graph

Daily Weather History Graph

Search for Another Location

Airport or City:

Trip Planner

Search our weather history database for the weather conditions in past years. The results will help you decide how hot, cold, wet, or windy it might be!

Date:

Astronomy

Oct. 17, 2013 Rise Set
Actual Time 7:25 AM MDT 6:09 PM MDT
Civil Twilight 6:53 AM MDT 6:40 PM MDT
Nautical Twilight 6:17 AM MDT 7:16 PM MDT
Astronomical Twilight 5:41 AM MDT 7:52 PM MDT
Moon 5:27 PM MDT (10/17) 5:55 AM MDT (10/17)
Length of Visible Light 11h 47m
Length of Day
10h 44m
Waxing Gibbous, 98% of the Moon is Illuminated
Oct 17
Waxing Gibbous
Oct 18
Full
Oct 26
Last Quarter
Nov 3
New
Nov 9
First Quarter

Hourly Weather History & Observations

Time (MDT) Temp. Windchill Dew Point Humidity Pressure Visibility Wind Dir Wind Speed Gust Speed Precip Events Conditions
12:53 AM 37.9 °F 32.7 °F 30.9 °F 76% 30.16 in 10.0 mi NW 6.9 mph - N/A   Overcast
1:53 AM 35.1 °F 30.1 °F 30.0 °F 82% 30.17 in 10.0 mi West 5.8 mph - N/A   Overcast
2:53 AM 35.1 °F - 30.0 °F 82% 30.17 in 10.0 mi Calm Calm - N/A   Overcast
3:53 AM 34.0 °F 29.8 °F 30.0 °F 85% 30.18 in 10.0 mi WSW 4.6 mph - N/A   Overcast
4:53 AM 32.0 °F 24.8 °F 28.0 °F 85% 30.20 in 10.0 mi West 8.1 mph - N/A   Overcast
5:53 AM 28.9 °F 20.4 °F 26.1 °F 89% 30.22 in 10.0 mi WSW 9.2 mph - N/A   Clear
6:53 AM 27.0 °F 18.7 °F 24.1 °F 89% 30.22 in 10.0 mi WSW 8.1 mph - N/A   Clear
7:53 AM 25.0 °F 17.1 °F 21.9 °F 88% 30.23 in 10.0 mi SW 6.9 mph - N/A   Clear
8:53 AM 28.0 °F 20.0 °F 24.1 °F 85% 30.24 in 10.0 mi WSW 8.1 mph - N/A   Clear
9:53 AM 32.0 °F 23.6 °F 27.0 °F 82% 30.23 in 10.0 mi WSW 10.4 mph - N/A   Clear
10:53 AM 37.0 °F 31.0 °F 30.0 °F 76% 30.20 in 10.0 mi WSW 8.1 mph - N/A   Clear
11:53 AM 41.0 °F 34.3 °F 33.1 °F 73% 30.19 in 10.0 mi West 11.5 mph - N/A   Clear
12:53 PM 46.0 °F 40.6 °F 30.0 °F 54% 30.16 in 10.0 mi WSW 11.5 mph - N/A   Clear
1:53 PM 48.0 °F - 28.0 °F 46% 30.12 in 10.0 mi West 12.7 mph - N/A   Partly Cloudy
2:53 PM 48.0 °F - 26.1 °F 42% 30.11 in 10.0 mi West 12.7 mph 20.7 mph N/A   Overcast
3:53 PM 46.9 °F - 26.1 °F 44% 30.11 in 10.0 mi WNW 13.8 mph - N/A   Overcast
4:53 PM 46.9 °F - 27.0 °F 46% 30.10 in 10.0 mi West 5.8 mph - N/A   Overcast
5:53 PM 44.1 °F 38.6 °F 30.9 °F 60% 30.11 in 10.0 mi West 10.4 mph - N/A   Overcast
6:53 PM 41.0 °F 33.5 °F 34.0 °F 76% 30.13 in 9.0 mi WNW 13.8 mph - 0.00 in Rain Light Rain
7:16 PM 37.4 °F 30.8 °F 35.6 °F 93% 30.07 in 4.0 mi NNW 9.2 mph - 0.03 in Rain Rain
7:53 PM 37.0 °F 34.5 °F 35.1 °F 93% 30.14 in 10.0 mi NW 3.5 mph - 0.03 in Rain Light Rain
8:02 PM 37.4 °F - 35.6 °F 93% 30.07 in 10.0 mi Calm Calm - 0.00 in   Overcast
8:53 PM 37.0 °F - 34.0 °F 89% 30.14 in 10.0 mi Calm Calm - 0.00 in   Overcast
9:53 PM 37.0 °F 33.3 °F 35.1 °F 93% 30.14 in 10.0 mi West 4.6 mph - N/A   Overcast
10:53 PM 33.1 °F 27.7 °F 30.9 °F 92% 30.15 in 10.0 mi WSW 5.8 mph - N/A   Partly Cloudy
11:53 PM 33.1 °F 27.7 °F 30.0 °F 89% 30.14 in 10.0 mi West 5.8 mph - N/A   Mostly Cloudy